Location: Chandrammap?lem
(16.9200°N, 81.0051°E)
Time: 10:46:59
(UTC+00:00)

ATLAS 3B R/B - Pass Details

Date: 29 May 2024
Orbit: 942 x 1252 km, 63.8° (Epoch: 14 June)

Event Time Altitude Azimuth Distance (km) Brightness Sun altitude
Rises 14:06:19 0° 340° (NNW) 4,190 6.6 -14.0°
Reaches altitude 10° 14:09:12 10° 344° (NNW) 3,213 5.8 -14.6°
Maximum altitude 14:16:53 63° 64° (ENE) 1,335 3.0 -16.2°
Enters shadow 14:21:48 23° 139° (SE) 2,280 3.9 -17.3°
